Location: Pedruel
(42.2619°N, 0.0872°W)
Time: 23:40:44
(UTC+00:00)

Daily predictions for brighter satellites

Satellite Brightness Start Highest point End
(mag) Time Altitude Azimuth Time Altitude Azimuth Time Altitude Azimuth
Cosmos 2219 Rocket 2.3 16:49:25 10° S 16:54:54 60° ESE 17:00:27 10° NNE
BREEZE-M R/B 4.2 16:50:22 10° W 16:57:19 44° NNW 17:00:54 10° NE
Cosmos 1844 Rocket 3.1 16:57:41 10° NNW 17:03:14 68° WSW 17:08:45 10° SSE
Cosmos 1733 Rocket 3.7 16:59:29 10° N 17:03:28 33° ENE 17:07:27 10° SE
Cosmos 1269 Rocket 4.4 17:00:05 10° SSW 17:05:22 67° WNW 17:10:40 10° NNE
Cosmos 1536 4.2 17:02:39 10° NNE 17:05:31 18° ENE 17:08:19 10° ESE
SMAP 3.2 17:01:03 10° SSE 17:05:32 50° ENE 17:10:04 10° N
PSLV R/B 3.9 17:02:57 10° NNE 17:07:08 78° ESE 17:11:14 10° S
Cosmos 1602 4.0 17:03:23 10° NNW 17:07:16 76° W 17:11:08 10° S
Cosmos 1500 4.0 17:05:38 10° NNE 17:08:57 28° ENE 17:12:14 10° SE
CZ-4 R/B 3.0 17:07:53 10° E 17:09:43 13° ENE 17:11:34 10° NE
Cosmos 1869 Rocket 4.2 17:06:03 10° NNW 17:10:25 61° W 17:14:48 10° S
Cosmos 1340 3.0 17:06:48 10° NNW 17:10:34 71° W 17:14:19 10° S
ALOS 4.0 17:08:47 10° SSW 17:13:06 37° W 17:17:26 10° NNW
H-2A R/B 2.8 17:10:16 10° SSE 17:13:51 50° ENE 17:17:26 10° N
ATLAS 2AS CENTAUR R/B 3.9 17:09:45 10° WSW 17:17:24 48° NW 17:25:07 10° NNE
Lacrosse 5 rocket 1.5 17:13:46 10° SSW 17:18:04 64° SE 17:21:46 12° NE
COSMOS 2428 2.8 17:14:46 10° SSW 17:20:27 87° WNW 17:26:11 10° NNE
Cosmos 304 Rocket 3.7 17:16:18 10° NNW 17:21:07 83° ENE 17:25:56 10° SSE
YAOGAN 6 3.9 17:19:27 10° ESE 17:22:01 19° ENE 17:24:37 10° NNE
Cosmos 1302 Rocket 4.1 17:20:53 10° NNW 17:26:12 86° WSW 17:31:26 10° SSE
Meteor 1-5 Rocket 4.1 17:20:42 10° N 17:26:16 68° ENE 17:31:37 10° SSE
SL-4 R/B 2.5 17:24:18 10° WSW 17:27:54 46° NNW 17:31:03 14° NE
IRS-1C Rocket 4.2 17:22:46 10° SSE 17:28:03 87° WSW 17:33:22 10° NNW
Okean O Rocket 3.7 17:25:33 10° SSW 17:29:23 30° W 17:33:14 10° NW
Cosmos 2251 Rocket 3.6 17:25:08 10° S 17:30:20 58° ESE 17:35:32 10° NNE
NOSS 0 Rocket 4.0 17:24:54 10° S 17:30:58 59° ESE 17:37:05 10° NNE
Cosmos 2242 Rocket 4.1 17:30:40 10° SSE 17:34:55 41° E 17:39:12 10° NNE
ATLAS 5 CENTAUR R/B 0.7 17:32:11 10° SSW 17:34:57 61° SE 17:35:55 26° NE
Cosmos 1862 Rocket 3.5 17:33:29 10° S 17:37:47 71° E 17:42:10 10° NNE
ERBS 2.9 17:36:21 10° NW 17:39:38 56° SW 17:42:55 10° SSE
NOSS 2 (A) 3.8 17:38:17 10° NNW 17:40:40 65° NE 17:42:28 15° SE
Okean-O 2.5 17:37:29 10° SSE 17:41:52 66° ENE 17:46:16 10° N
USA 215 4.3 17:44:09 12° NE 17:49:29 34° NNW 17:55:12 10° W
CENTAUR R/B 4.5 17:44:37 10° NW 17:52:17 44° WSW 18:00:21 10° S
Envisat 2.9 17:48:27 10° SSE 17:53:30 77° ENE 17:58:36 10° N
Cosmos 1666 3.0 17:50:14 10° N 17:53:46 38° ENE 17:57:15 10° SSE
Cosmos 2278 Rocket 2.1 17:51:09 10° NNW 17:56:51 78° ENE 18:02:29 10° SSE
BREEZE-M DEB (TANK) 2.5 17:59:05 10° WNW 18:03:32 47° N 18:04:16 38° NE
Cosmos 407 Rocket 4.4 17:59:26 10° SSE 18:03:44 27° E 18:03:54 27° E
SL-16 R/B 2.8 18:03:51 10° SSE 18:08:52 34° ESE 18:09:56 31° E
Shenzhou-11 Module 1.9 18:08:09 10° W 18:10:38 66° NW 18:10:38 66° NW
Nadezhda 4 Rocket 4.3 18:05:10 10° SSW 18:11:28 70° W 18:17:48 10° N
Cosmos 1992 Rocket 3.9 18:06:40 10° NNW 18:11:56 88° WSW 18:17:09 10° SSE
Cosmos 2333 Rocket 3.7 18:07:08 10° WSW 18:12:20 35° NW 18:17:35 10° N
RESURS DK-1 4.1 18:10:09 10° WSW 18:13:47 29° WNW 18:17:10 11° N
STARLINK-46 4.5 18:11:52 10° W 18:14:02 21° NNW 18:14:02 21° NNW
Cosmos 1908 Rocket 3.4 18:10:14 10° N 18:14:40 77° E 18:19:01 10° SSE
COSMO-SKYMED 1 2.5 18:12:09 14° NNE 18:15:51 88° WNW 18:20:11 10° SSW
ISS -3.7 18:13:54 10° NW 18:17:00 60° N 18:17:00 60° N
Cosmos 1553 Rocket 4.4 18:12:04 10° N 18:17:55 37° ENE 18:23:46 10° SE
Meteor 1-27 Rocket 4.4 18:13:55 10° SSW 18:19:30 56° WNW 18:25:14 10° N
Cosmos 1812 4.5 18:16:09 10° SW 18:19:38 32° WNW 18:23:09 10° NNW
STARLINK-60 3.2 18:17:49 10° SW 18:20:54 60° SSE 18:20:54 60° SSE
Cosmos 2237 Rocket 2.4 18:15:49 10° SSW 18:21:30 73° WNW 18:25:48 18° NNE
YAOGAN 1 2.4 18:18:54 10° SSE 18:23:11 67° ENE 18:27:29 10° N
BREEZE-M DEB (TANK) 2.3 18:24:09 10° WNW 18:27:30 53° NW 18:27:30 53° NW
USA 116 4.3 18:24:32 17° NNE 18:28:45 80° ESE 18:33:54 10° S
Cosmos 1900 4.2 18:28:23 10° NNW 18:33:17 90° NNW 18:35:41 31° SSE
Cosmos 2026 Rocket 3.8 18:28:06 10° S 18:34:10 81° E 18:40:15 10° N
Cosmos 2219 Rocket 4.2 18:34:54 10° WSW 18:39:17 23° NW 18:43:40 10° N
Okean 1-7 3.0 18:37:06 10° S 18:41:24 79° W 18:42:13 57° N
Meteor 1-18 Rocket 4.1 18:37:50 10° S 18:43:33 67° E 18:44:37 55° NE
CZ-4 R/B 2.1 18:40:31 10° S 18:44:21 50° W 18:48:09 10° NNW
DMSP B5D1-3 4.3 18:47:33 71° NE 18:48:02 78° ESE 18:53:09 10° S
Cosmos 1417 Rocket 4.4 18:42:41 10° N 18:48:45 60° E 18:54:47 10° SSE
Cosmos 1655 Rocket 4.3 18:45:34 10° SSE 18:50:25 46° SE 18:50:25 46° SE
Cosmos 1190 Rocket 4.2 18:48:43 10° S 18:52:51 54° SSE 18:52:51 54° SSE
Cosmos 2297 3.6 18:51:31 10° NNW 18:56:47 70° NNE 18:56:47 70° NNE
Lacrosse 5 rocket 3.2 18:54:04 10° W 18:57:25 24° NNW 18:57:25 24° NNW
CSL-04 Rocket 4.2 18:56:06 10° S 19:01:16 57° W 19:06:29 10° NNW
Cosmos 1943 Rocket 4.2 18:56:43 10° N 18:57:45 15° N 18:57:45 15° N
SL-4 R/B 4.3 19:05:08 10° WNW 19:06:39 18° NW 19:06:39 18° NW
SL-16 R/B 3.6 19:47:40 10° SW 19:51:52 34° W 19:51:52 34° W
